Location: Cassano d�Adda
(45.5333°N, 9.5167°E)
Time: 23:57:42
(UTC+00:00)

SL-16 R/B - Pass Details

Date: 08 December 2019
Orbit: 840 x 849 km, 71.0° (Epoch: 27 January)

Event Time Altitude Azimuth Distance (km) Brightness Sun altitude
Rises 17:47:58 0° 192° (SSW) 3,390 5.6 -21.8°
Reaches altitude 10° 17:50:26 10° 189° (S) 2,460 4.8 -22.2°
Maximum altitude 17:55:58 60° 111° (ESE) 967 2.2 -23.2°
Enters shadow 17:56:44 55° 76° (ENE) 1,017 2.2 -23.3°
